Regional Weather Roundup
Issued by NWS

Home | Current Version | Previous Version | Graphics & Text | Print | Product List | Glossary On
Versions: 1 2 3 4 5 6 7 8 9 10 11 12 13 14 15 16 17 18 19 20 21 22 23 24 25 26 27 28 29 30 31 32 33 34 35 36 37 38 39 40 41 42 43 44 45 46 47 48 49 50
000
ASUS45 KCYS 221710
RWRWY

WYOMING REGIONAL WEATHER ROUNDUP
NATIONAL WEATHER SERVICE CHEYENNE WY
1100 AM MDT FRI MAY 22 2015

NOTE:  "FAIR" INDICATES FEW OR NO CLOUDS BELOW 12,000 FEET
WITH NO SIGNIFICANT WEATHER AND/OR OBSTRUCTIONS TO VISIBILITY.

WYZ001-221800-
YELLOWSTONE NATIONAL PARK

CITY           SKY/WX    TMP DP  RH WIND       PRES   REMARKS
LK YELLOWSTONE   N/A     44  35  70 VRB5      30.05S
W YELLOWSTONE  NOT AVBL

$$
WYZ002>013-054>058-071-098>099-221800-
NORTHERN WYOMING

CITY           SKY/WX    TMP DP  RH WIND       PRES   REMARKS
JACKSON        MOSUNNY   54  39  58 W6        29.98F
CODY           FAIR      55  46  71 N6        29.97S
GREYBULL       FAIR      61  44  53 VRB5      29.93F
WORLAND        CLOUDY    57  48  72 CALM      29.94S
SHERIDAN       CLOUDY    57  45  64 SE21      29.96F
BUFFALO          N/A     55  45  68 SE14      30.00S
GILLETTE       FAIR      57  43  59 SE22G32   30.02S
HULETT         CLOUDY    59  43  55 E8        30.06S
NEWCASTLE      PTSUNNY   54  41  62 SE21G26   30.07S

$$
WYZ014>020-022>026-101>103-221800-
CENTRAL WYOMING

CITY           SKY/WX    TMP DP  RH WIND       PRES   REMARKS
BIG PINEY      FAIR      51  38  60 CALM      30.00S
PINEDALE       PTSUNNY   50  37  62 W6        30.00F
DUBOIS         CLOUDY    50  37  62 SE8       30.01S
LANDER         LGT RAIN  50  46  86 NE9       29.98R
RIVERTON       LGT RAIN  48  45  89 NE5       29.99S
CASPER         LGT RAIN  50  45  83 CALM      29.98F
DOUGLAS        CLOUDY    47  44  90 SE18      30.04R

$$
WYZ021-027>030-104>119-221800-
SOUTHERN WYOMING

CITY           SKY/WX    TMP DP  RH WIND       PRES   REMARKS
EVANSTON       FAIR      48  40  73 VRB3      30.00S
KEMMERER       CLOUDY    48  41  76 E6        30.01S
FORT BRIDGER   CLOUDY    48  45  87 N3        30.03S
ROCK SPRINGS   CLOUDY    49  41  74 SE6       29.99F
DIXON          CLOUDY    46  41  82 S12       30.05R
RAWLINS        LGT RAIN  49  42  77 NW6       30.00S
SARATOGA       RAIN      45  41  87 SW9       30.02R
LARAMIE        CLOUDY    47  38  71 SE21      30.00F
CHEYENNE       LGT RAIN  44  42  93 SE10      30.04S FOG
TORRINGTON     LGT RAIN  49  46  90 MISG      30.05S
PINE BLUFFS    DRIZZLE   45  43  93 SE12      30.05S

$$


USA.gov is the U.S. government's official web portal to all federal, state and local government web resources and services.